Location: Newark
(44.3290°N, 23.7757°E)
Time: 21:17:40
(UTC+00:00)

Envisat - Visible Passes

Search period start: 30 March 2023 00:00
Search period end: 09 April 2023 00:00
Orbit: 763 x 765 km, 98.2° (Epoch: 30 March)

Date Brightness Start Highest point End Pass type
(mag) Time Alt. Az. Time Alt. Az. Time Alt. Az.
30 Mar 5.1 01:27:45 10° NE 01:31:45 23° E 01:35:44 10° SE visible
30 Mar 3.3 03:06:07 10° N 03:10:57 46° WNW 03:15:46 10° SW visible
31 Mar 5.9 00:53:49 10° E 00:54:12 10° E 00:54:35 10° E visible
31 Mar 3.0 02:28:50 10° NNE 02:33:57 84° ESE 02:39:02 10° SSW visible
01 Apr 4.3 01:52:01 10° NNE 01:56:45 38° E 02:01:28 10° SSE visible
01 Apr 4.0 03:31:18 10° N 03:35:35 28° WNW 03:39:52 10° WSW visible
02 Apr 5.4 01:15:55 10° NE 01:19:21 18° E 01:22:46 10° SE visible
02 Apr 3.1 02:53:44 10° N 02:58:43 59° WNW 03:03:41 10° SSW visible
03 Apr 3.3 02:16:35 10° NNE 02:21:40 66° ESE 02:26:41 10° S visible
04 Apr 4.7 01:39:56 10° NE 01:44:24 30° E 01:48:49 10° SSE visible
04 Apr 3.7 03:18:48 10° N 03:23:24 35° WNW 03:27:59 10° SW visible
05 Apr 5.6 01:04:19 10° ENE 01:06:55 14° E 01:09:30 10° ESE visible
05 Apr 2.9 02:41:23 10° N 02:46:28 75° WNW 02:51:31 10° SSW visible
06 Apr 3.8 02:04:22 10° NNE 02:09:20 51° E 02:14:15 10° S visible
07 Apr 5.1 01:27:56 10° NE 01:32:00 24° E 01:36:01 10° SE visible
07 Apr 3.4 03:06:21 10° N 03:11:10 45° WNW 03:15:58 10° SW visible
08 Apr 5.9 00:53:34 10° ENE 00:54:26 10° E 00:55:19 10° E visible
08 Apr 3.0 02:29:04 10° NNE 02:34:11 86° ESE 02:39:15 10° SSW visible
